Weather History for Randolph AFB, TX

Change the Weather History Date:

Thursday, October 4, 2012

  Actual Average Record
Temperature  
Mean Temperature 79 °F -  
Max Temperature 90 °F 81 °F 91 °F (1997)
Min Temperature 68 °F 62 °F 52 °F (2011)
Cooling Degree Days 14    
Growing Degree Days 29 (Base 50)    
Moisture  
Dew Point 70 °F    
Average Humidity 87    
Maximum Humidity 100    
Minimum Humidity 49    
Precipitation  
Precipitation 0.00 in - - ()
Sea Level Pressure  
Sea Level Pressure 30.03 in    
Wind  
Wind Speed 6 mph (SE)    
Max Wind Speed 17 mph    
Max Gust Speed 23 mph    
Visibility 9 miles    
Events      
Averages and records for this station are not official NWS values.
T = Trace of Precipitation, MM = Missing Value Source: NWS Daily Summary

Daily Weather History Graph

Daily Weather History Graph

Search for Another Location

Airport:

Trip Planner

Search our weather history database for the weather conditions in past years. The results will help you decide how hot, cold, wet, or windy it might be!

Date:

Astronomy

Oct. 04, 2012 Rise Set
Actual Time 7:28 AM CDT 7:14 PM CDT
Civil Twilight 7:04 AM CDT 7:38 PM CDT
Nautical Twilight 6:36 AM CDT 8:05 PM CDT
Astronomical Twilight 6:09 AM CDT 8:33 PM CDT
Moon 10:11 PM CDT (10/4) 11:26 AM CDT (10/4)
Length of Visible Light 12h 33m
Length of Day
11h 46m
Waning Gibbous, 82% of the Moon is Illuminated
Oct 4
Waning Gibbous
Oct 8
Last Quarter
Oct 15
New
Oct 21
First Quarter
Oct 29
Full

Hourly Weather History & Observations

Time (CDT) Temp. Heat Index Dew Point Humidity Pressure Visibility Wind Dir Wind Speed Gust Speed Precip Events Conditions
12:55 AM 68.2 °F - 64.4 °F 88% 30.01 in 10.0 mi ESE 3.5 mph - N/A   Clear
1:12 AM 68.0 °F - 64.4 °F 88% 30.02 in 10.0 mi East 3.5 mph - N/A   Mostly Cloudy
1:30 AM 68.0 °F - 64.4 °F 88% 30.01 in 10.0 mi Calm Calm - N/A   Scattered Clouds
1:39 AM 68.0 °F - 64.4 °F 88% 30.01 in 10.0 mi Calm Calm - N/A   Mostly Cloudy
1:50 AM 68.0 °F - 64.4 °F 88% 30.01 in 10.0 mi Calm Calm - N/A   Scattered Clouds
1:55 AM 68.5 °F - 65.1 °F 89% 30.01 in 10.0 mi Calm Calm - N/A   Scattered Clouds
1:58 AM 68.0 °F - 64.4 °F 88% 30.01 in 10.0 mi Calm Calm - N/A   Mostly Cloudy
2:55 AM 69.1 °F - 66.7 °F 92% 30.01 in 10.0 mi Calm Calm - N/A   Mostly Cloudy
3:02 AM 69.8 °F - 66.2 °F 88% 30.01 in 10.0 mi Calm Calm - N/A   Overcast
3:26 AM 69.8 °F - 68.0 °F 94% 30.00 in 10.0 mi Calm Calm - N/A   Overcast
3:28 AM 69.8 °F - 68.0 °F 94% 30.00 in 10.0 mi Calm Calm - N/A   Overcast
3:54 AM 69.8 °F - 68.0 °F 94% 30.00 in 10.0 mi ENE 3.5 mph - N/A   Mostly Cloudy
4:07 AM 69.8 °F - 68.0 °F 94% 30.00 in 10.0 mi Calm Calm - N/A   Overcast
4:55 AM 69.3 °F - 68.5 °F 98% 30.00 in 10.0 mi Calm Calm - N/A   Overcast
5:25 AM 68.0 °F - 68.0 °F 100% 30.01 in 10.0 mi Calm Calm - N/A   Overcast
5:40 AM 69.8 °F - 69.8 °F 100% 30.01 in 10.0 mi East 4.6 mph - N/A   Overcast
5:55 AM 70.5 °F - 70.2 °F 99% 30.01 in 10.0 mi ESE 4.6 mph - N/A   Overcast
6:55 AM 72.1 °F - 72.0 °F 99% 30.02 in 10.0 mi SE 9.2 mph - N/A   Overcast
7:22 AM 73.4 °F - 73.4 °F 100% 30.04 in 4.0 mi SSE 9.2 mph - N/A   Overcast
7:55 AM 72.7 °F - 72.7 °F 100% 30.04 in 4.0 mi SSE 10.4 mph - N/A   Overcast
8:14 AM 73.4 °F - 73.4 °F 100% 30.05 in 5.0 mi SSE 10.4 mph - N/A   Overcast
8:34 AM 73.4 °F - 73.4 °F 100% 30.06 in 5.0 mi SSE 10.4 mph - N/A   Overcast
8:48 AM 73.4 °F - 73.4 °F 100% 30.05 in 5.0 mi SSE 10.4 mph - N/A   Overcast
8:55 AM 73.6 °F - 73.2 °F 99% 30.05 in 10.0 mi SSE 11.5 mph - N/A   Overcast
8:59 AM 73.4 °F - 73.4 °F 100% 30.06 in 10.0 mi SSE 11.5 mph - N/A   Overcast
9:33 AM 75.2 °F - 73.4 °F 94% 30.07 in 10.0 mi SSE 10.4 mph - N/A   Mostly Cloudy
9:48 AM 75.2 °F - 73.4 °F 94% 30.06 in 10.0 mi SSE 12.7 mph - N/A   Overcast
9:55 AM 76.1 °F - 73.9 °F 93% 30.06 in 10.0 mi SSE 13.8 mph 19.6 mph N/A   Mostly Cloudy
10:00 AM 77.0 °F - 73.4 °F 89% 30.06 in 10.0 mi SSE 12.7 mph - N/A   Mostly Cloudy
10:15 AM 77.0 °F - 73.4 °F 89% 30.08 in 10.0 mi SSE 15.0 mph - N/A   Mostly Cloudy
10:55 AM 79.7 °F - 72.9 °F 80% 30.06 in 10.0 mi South 15.0 mph 21.9 mph N/A   Mostly Cloudy
11:26 AM 82.4 °F 88.2 °F 73.4 °F 74% 30.07 in 10.0 mi South 15.0 mph 23.0 mph N/A   Scattered Clouds
11:55 AM 84.2 °F 90.3 °F 72.7 °F 68% 30.06 in 10.0 mi South 17.3 mph 23.0 mph N/A   Scattered Clouds
12:55 PM 86.4 °F 92.2 °F 71.6 °F 61% 30.06 in 10.0 mi South 13.8 mph 21.9 mph N/A   Scattered Clouds
1:55 PM 88.2 °F 94.1 °F 71.4 °F 57% 30.03 in 10.0 mi SSE 13.8 mph - N/A   Clear
2:55 PM 90.0 °F 95.0 °F 69.4 °F 51% 30.01 in 10.0 mi SSE 16.1 mph 19.6 mph N/A   Clear
3:55 PM 90.7 °F 95.4 °F 68.9 °F 49% 30.00 in 10.0 mi South 12.7 mph - N/A   Clear
4:55 PM 89.6 °F 95.7 °F 70.7 °F 54% 30.01 in 10.0 mi SE 11.5 mph - N/A   Partly Cloudy
5:55 PM 86.5 °F 92.9 °F 72.1 °F 62% 30.01 in 10.0 mi SE 15.0 mph - N/A   Clear
6:55 PM 83.7 °F 89.2 °F 72.1 °F 68% 30.01 in 10.0 mi SE 16.1 mph - N/A   Clear
7:55 PM 79.5 °F - 72.7 °F 79% 30.04 in 10.0 mi SE 13.8 mph - N/A   Clear
8:55 PM 77.4 °F - 72.1 °F 84% 30.06 in 10.0 mi SE 10.4 mph - N/A   Clear
9:55 PM 75.9 °F - 72.1 °F 88% 30.07 in 10.0 mi SE 8.1 mph - N/A   Clear
10:55 PM 74.1 °F - 72.1 °F 94% 30.09 in 10.0 mi SE 6.9 mph - N/A   Clear
11:28 PM 73.4 °F - 73.4 °F 100% 30.09 in 10.0 mi SE 4.6 mph - N/A   Mostly Cloudy
11:55 PM 74.5 °F - 72.7 °F 94% 30.09 in 10.0 mi SE 5.8 mph - N/A   Overcast